598  
AXUS43 KGID 271902  
MISGRI  
 
GID CWA HOURLY WEATHER ROUNDUP  
NATIONAL WEATHER SERVICE HASTINGS NE  
100 PM CST THU FEB 27 2020  
 
NOTE: "FAIR" INDICATES FEW OR NO CLOUDS BELOW 12,000 FEET WITH NO  
SIGNIFICANT WEATHER AND/OR OBSTRUCTIONS TO VISIBILITY.  
   
..SOUTH CENTRAL NEBRASKA
 
 
 
CITY SKY/WX TMP DP RH WIND PRES REMARKS  
GRAND ISLAND LGT SNOW 37 31 78 N13 30.15R WCI 29  
KEARNEY LGT SNOW 33 32 96 NW9 30.16S FOG WCI 25  
HASTINGS LGT SNOW 35 33 92 NW10 30.15R FOG WCI 27  
ORD CLOUDY 36 30 79 NW16 30.14S WCI 26  
AURORA CLOUDY 41 29 62 N10 30.13S  
LEXINGTON LGT SNOW 33 33 96 NW10 30.18R WCI 25  
HOLDREGE SNOW 34 33 95 NW5 30.16S VSB 1/2 WCI 30  
HEBRON CLOUDY 45 28 50 N10 30.12S  
   
..NEBRASKA PANHANDLE
 
 
 
CITY SKY/WX TMP DP RH WIND PRES REMARKS  
CHADRON CLOUDY 33 29 85 S6 30.22S WCI 28  
ALLIANCE PTSUNNY 36 28 73 N13 30.19R WCI 27  
SCOTTSBLUFF SUNNY 44 22 41 NW22G36 30.22F  
SIDNEY SUNNY 39 23 52 NW28G40 30.20R WCI 28  
   
..WESTERN AND NORTH CENTRAL NEBRASKA
 
 
 
CITY SKY/WX TMP DP RH WIND PRES REMARKS  
VALENTINE MOSUNNY 40 25 55 NW14G24 30.15S WCI 32  
AINSWORTH PTSUNNY 37 27 66 NW13 30.15S WCI 29  
ONEILL CLOUDY 33 26 75 NW13 30.15F WCI 24  
BROKEN BOW FLURRIES 36 28 73 NW14 30.15R WCI 27  
IMPERIAL CLOUDY 43 23 45 N31G39 30.18R  
NORTH PLATTE LGT RAIN 38 31 76 N20G28 30.17S WCI 28  
MCCOOK LGT RAIN 39 33 79 N9 30.16R WCI 33  
   
..EASTERN NEBRASKA
 
 
 
CITY SKY/WX TMP DP RH WIND PRES REMARKS  
NORFOLK MOSUNNY 37 20 50 N6 30.14S WCI 32  
SO SIOUX CITY SUNNY 35 22 58 NW7 30.16S WCI 29  
TEKAMAH PTSUNNY 37 24 59 N7 30.16S WCI 32  
COLUMBUS CLOUDY 38 23 55 NW8 30.15S WCI 32  
ALBION PTSUNNY 39 26 60 N12 30.13S WCI 31  
OMAHA EPPLEY CLOUDY 37 23 56 NW6 30.14S WCI 32  
MILLARD CLOUDY 39 21 47 NW3 30.14S  
LINCOLN CLOUDY 44 22 41 MISG 30.14S  
NEBRASKA CITY MOSUNNY 39 23 53 N8 30.12S WCI 33  
BEATRICE MOSUNNY 44 27 51 NW10G16 30.11F  
FALLS CITY N/A 40 25 55 VRB5 30.11F  
   
..NORTHERN KANSAS
 
 
 
CITY SKY/WX TMP DP RH WIND PRES REMARKS  
GOODLAND PTSUNNY 47 24 40 N29G41 30.18R  
HILL CITY CLOUDY 42 37 82 NW13 30.17F  
PHILLIPSBURG CLOUDY 36 28 75 NW14 30.17S WCI 27  
OBERLIN CLOUDY 45 35 67 N22 30.19S  
SMITH CENTER CLOUDY 43 30 61 NW15 30.16R  
HAYS CLOUDY 46 33 60 NW17 30.15S  
RUSSELL CLOUDY 49 27 42 W17 30.12S  
CONCORDIA PTSUNNY 50 26 39 NW9G17 30.11F  
SALINA SUNNY 51 27 39 NW7 30.14F  
TOPEKA MOSUNNY 48 25 40 VRB5 30.11F  
 
CLICK HERE TO GO TO PREVIOUS BULLETINS.

The Nexlab NE Page
The Nexlab KS Page Main Text Page